,,Stat6,,Stat2,,Stat8,,Stat9,,Stat10,,Wind1,,Wind1,
time,status,PA1M_AVG,status,PR1M_SUM,status,RH1M_AVG,status,SR1M_AVG,status,TA1M_AVG,status,W1dAve1m,status,W1sAve1m,
2008-09-01, 00:00:00,VALID,917.293,VALID,0,VALID,100,VALID,0,VALID,18.9304,VALID,114,VALID,0,
2008-09-01, 00:01:00,VALID,917.251,VALID,0,VALID,100,VALID,0,VALID,18.911,VALID,117,VALID,0,
2008-09-01, 00:02:00,VALID,917.237,VALID,0,VALID,100,VALID,-0.0169808,VALID,18.8978,VALID,125,VALID,0,
2008-09-01, 00:03:00,VALID,917.223,VALID,0,VALID,100,VALID,0,VALID,18.8818,VALID,113,VALID,0,
2008-09-01, 00:04:00,VALID,917.226,VALID,0,VALID,100,VALID,-0.0169808,VALID,18.8558,VALID,124,VALID,0,
2008-09-01, 00:05:00,VALID,917.215,VALID,0,VALID,100,VALID,0,VALID,18.8227,VALID,116,VALID,0,
2008-09-01, 00:06:00,VALID,917.219,VALID,0,VALID,100,VALID,-0.0169808,VALID,18.8169,VALID,125,VALID,0.00111607,
2008-09-01, 00:07:00,VALID,917.22,VALID,0,VALID,100,VALID,-0.0169808,VALID,18.8039,VALID,135,VALID,0.0623224,
2008-09-01, 00:08:00,VALID,917.206,VALID,0,VALID,100,VALID,-0.0169808,VALID,18.8104,VALID,146,VALID,0,
2008-09-01, 00:09:00,VALID,917.199,VALID,0,VALID,100,VALID,-0.0339617,VALID,18.8034,VALID,136,VALID,0,
2008-09-01, 00:10:00,VALID,917.201,VALID,0,VALID,100,VALID,0,VALID,18.8426,VALID,144,VALID,0,
2008-09-01, 00:11:00,VALID,917.199,VALID,0,VALID,100,VALID,-0.0339617,VALID,18.8753,VALID,132,VALID,0,
2008-09-01, 00:12:00,VALID,917.213,VALID,0,VALID,100,VALID,-0.0509425,VALID,18.9075,VALID,124,VALID,0,
2008-09-01, 00:13:00,VALID,917.215,VALID,0,VALID,100,VALID,0,VALID,18.8945,VALID,121,VALID,0,
2008-09-01, 00:14:00,VALID,917.226,VALID,0,VALID,100,VALID,-0.0169808,VALID,18.8621,VALID,102,VALID,0,
2008-09-01, 00:15:00,VALID,917.229,VALID,0,VALID,100,VALID,0.0169808,VALID,18.8586,VALID,102,VALID,0,
2008-09-01, 00:16:00,VALID,917.225,VALID,0,VALID,100,VALID,0,VALID,18.8489,VALID,100,VALID,0,
2008-09-01, 00:17:00,VALID,917.231,VALID,0,VALID,100,VALID,0,VALID,18.8329,VALID,91,VALID,0,
2008-09-01, 00:18:00,VALID,917.229,VALID,0,VALID,100,VALID,-0.0169808,VALID,18.8231,VALID,90,VALID,0,
2008-09-01, 00:19:00,VALID,917.234,VALID,0,VALID,100,VALID,0,VALID,18.8558,VALID,92,VALID,0,
2008-09-01, 00:20:00,VALID,917.239,VALID,0,VALID,100,VALID,0,VALID,18.9077,VALID,127,VALID,0,
2008-09-01, 00:21:00,VALID,917.24,VALID,0,VALID,100,VALID,-0.0339617,VALID,18.9272,VALID,141,VALID,0,
2008-09-01, 00:22:00,VALID,917.208,VALID,0,VALID,100,VALID,-0.0169808,VALID,18.9172,VALID,144,VALID,0,
2008-09-01, 00:23:00,VALID,917.198,VALID,0,VALID,100,VALID,-0.0849042,VALID,18.9369,VALID,139,VALID,0,
2008-09-01, 00:24:00,VALID,917.174,VALID,0,VALID,100,VALID,-0.0169808,VALID,18.9429,VALID,138,VALID,0,
2008-09-01, 00:25:00,VALID,917.161,VALID,0,VALID,100,VALID,-0.0509425,VALID,18.9694,VALID,147,VALID,0,
2008-09-01, 00:26:00,VALID,917.154,VALID,0,VALID,100,VALID,0,VALID,18.9791,VALID,154,VALID,0,
2008-09-01, 00:27:00,VALID,917.151,VALID,0,VALID,100,VALID,0,VALID,18.9557,VALID,158,VALID,0,
2008-09-01, 00:28:00,VALID,917.153,VALID,0,VALID,100,VALID,0,VALID,18.9364,VALID,155,VALID,0,
2008-09-01, 00:29:00,VALID,917.147,VALID,0,VALID,100,VALID,-0.0339617,VALID,18.9177,VALID,157,VALID,0,
2008-09-01, 00:30:00,VALID,917.147,VALID,0,VALID,100,VALID,-0.0849042,VALID,18.9045,VALID,145,VALID,0.00111607,
2008-09-01, 00:31:00,VALID,917.143,VALID,0,VALID,100,VALID,-0.0169808,VALID,18.8883,VALID,144,VALID,0,
2008-09-01, 00:32:00,VALID,917.116,VALID,0,VALID,100,VALID,-0.0339617,VALID,18.8978,VALID,142,VALID,0,
2008-09-01, 00:33:00,VALID,917.097,VALID,0,VALID,100,VALID,-0.0339617,VALID,18.9072,VALID,149,VALID,0,
2008-09-01, 00:34:00,VALID,917.076,VALID,0,VALID,100,VALID,-0.0169808,VALID,18.9499,VALID,153,VALID,0,
2008-09-01, 00:35:00,VALID,917.04,VALID,0,VALID,100,VALID,-0.0169808,VALID,18.9589,VALID,151,VALID,0,
2008-09-01, 00:36:00,VALID,917.018,VALID,0,VALID,100,VALID,-0.0339617,VALID,18.9891,VALID,150,VALID,0,
2008-09-01, 00:37:00,VALID,916.984,VALID,0,VALID,100,VALID,-0.0169808,VALID,19.0078,VALID,156,VALID,0,
2008-09-01, 00:38:00,VALID,916.955,VALID,0,VALID,100,VALID,-0.0339617,VALID,19.0342,VALID,155,VALID,0.0109375,
2008-09-01, 00:39:00,VALID,916.935,VALID,0,VALID,100,VALID,0,VALID,19.0567,VALID,146,VALID,0,
2008-09-01, 00:40:00,VALID,916.913,VALID,0,VALID,100,VALID,0,VALID,19.0599,VALID,145,VALID,0,
2008-09-01, 00:41:00,VALID,916.891,VALID,0,VALID,100,VALID,0,VALID,19.0664,VALID,148,VALID,0,
2008-09-01, 00:42:00,VALID,916.885,VALID,0,VALID,100,VALID,-0.0339617,VALID,19.0634,VALID,142,VALID,0,
2008-09-01, 00:43:00,VALID,916.861,VALID,0,VALID,100,VALID,-0.0169808,VALID,19.0632,VALID,139,VALID,0,
2008-09-01, 00:44:00,VALID,916.84,VALID,0,VALID,100,VALID,-0.0169808,VALID,19.0664,VALID,138,VALID,0,
2008-09-01, 00:45:00,VALID,916.83,VALID,0,VALID,100,VALID,-0.0169808,VALID,19.0697,VALID,142,VALID,0,
2008-09-01, 00:46:00,VALID,916.815,VALID,0,VALID,100,VALID,0,VALID,19.0724,VALID,146,VALID,0,
2008-09-01, 00:47:00,VALID,916.802,VALID,0,VALID,100,VALID,0,VALID,19.0664,VALID,148,VALID,0,
2008-09-01, 00:48:00,VALID,916.782,VALID,0,VALID,100,VALID,-0.0169808,VALID,19.0535,VALID,152,VALID,0,
2008-09-01, 00:49:00,VALID,916.754,VALID,0,VALID,100,VALID,-0.0169808,VALID,19.0437,VALID,147,VALID,0,
2008-09-01, 00:50:00,VALID,916.736,VALID,0,VALID,100,VALID,-0.0169808,VALID,19.037,VALID,150,VALID,0,
2008-09-01, 00:51:00,VALID,916.727,VALID,0,VALID,100,VALID,-0.0169808,VALID,19.04,VALID,158,VALID,0,
2008-09-01, 00:52:00,VALID,916.699,VALID,0,VALID,100,VALID,-0.0339617,VALID,19.0372,VALID,154,VALID,0,
2008-09-01, 00:53:00,VALID,916.683,VALID,0,VALID,100,VALID,0,VALID,19.0303,VALID,141,VALID,0.0619673,
2008-09-01, 00:54:00,VALID,916.68,VALID,0,VALID,100,VALID,-0.0169808,VALID,19.034,VALID,131,VALID,0,
2008-09-01, 00:55:00,VALID,916.652,VALID,0,VALID,100,VALID,0,VALID,19.0277,VALID,130,VALID,0.0012718,
2008-09-01, 00:56:00,VALID,916.63,VALID,0,VALID,100,VALID,-0.0339617,VALID,19.018,VALID,138,VALID,0,
2008-09-01, 00:57:00,VALID,916.632,VALID,0,VALID,100,VALID,-0.0169808,VALID,19.0148,VALID,150,VALID,0,
2008-09-01, 00:58:00,VALID,916.609,VALID,0,VALID,100,VALID,-0.0509425,VALID,19.0145,VALID,157,VALID,0,
2008-09-01, 00:59:00,VALID,916.599,VALID,0,VALID,100,VALID,-0.0509425,VALID,19.0143,VALID,159,VALID,0,
2008-09-01, 01:00:00,VALID,916.589,VALID,0,VALID,100,VALID,-0.0169808,VALID,19.0113,VALID,153,VALID,0,
2008-09-01, 01:01:00,VALID,916.586,VALID,0,VALID,100,VALID,-0.0509425,VALID,19.0013,VALID,142,VALID,0,
2008-09-01, 01:02:00,VALID,916.58,VALID,0,VALID,100,VALID,-0.0169808,VALID,18.9983,VALID,133,VALID,0.0414807,
2008-09-01, 01:03:00,VALID,916.589,VALID,0,VALID,100,VALID,-0.0169808,VALID,18.9721,VALID,144,VALID,0.47674,
2008-09-01, 01:04:00,VALID,916.584,VALID,0,VALID,100,VALID,-0.0339617,VALID,18.9788,VALID,135,VALID,0.990854,
2008-09-01, 01:05:00,VALID,916.576,VALID,0,VALID,100,VALID,-0.0169808,VALID,18.999,VALID,143,VALID,0.715021,
2008-09-01, 01:06:00,VALID,916.574,VALID,0,VALID,100,VALID,0,VALID,19.0046,VALID,126,VALID,0.394077,
2008-09-01, 01:07:00,VALID,916.587,VALID,0,VALID,100,VALID,0,VALID,19.0175,VALID,127,VALID,0.709484,
2008-09-01, 01:08:00,VALID,916.562,VALID,0,VALID,100,VALID,-0.0169808,VALID,19.024,VALID,126,VALID,0,
2008-09-01, 01:09:00,VALID,916.574,VALID,0,VALID,100,VALID,0,VALID,19.031,VALID,127,VALID,0,
2008-09-01, 01:10:00,VALID,916.574,VALID,0,VALID,100,VALID,0,VALID,19.0375,VALID,145,VALID,0,
2008-09-01, 01:11:00,VALID,916.57,VALID,0,VALID,100,VALID,0,VALID,19.0238,VALID,144,VALID,0,
2008-09-01, 01:12:00,VALID,916.562,VALID,0,VALID,100,VALID,0,VALID,19.0432,VALID,144,VALID,0,
2008-09-01, 01:13:00,VALID,916.568,VALID,0,VALID,100,VALID,-0.0339617,VALID,19.0437,VALID,144,VALID,0,
2008-09-01, 01:14:00,VALID,916.566,VALID,0,VALID,100,VALID,-0.0169808,VALID,19.0569,VALID,144,VALID,0,
2008-09-01, 01:15:00,VALID,916.564,VALID,0,VALID,100,VALID,-0.0169808,VALID,19.0629,VALID,172,VALID,0.102834,
2008-09-01, 01:16:00,VALID,916.555,VALID,0,VALID,100,VALID,-0.0509425,VALID,19.0732,VALID,184,VALID,0,
2008-09-01, 01:17:00,VALID,916.568,VALID,0,VALID,100,VALID,-0.0169808,VALID,19.0861,VALID,160,VALID,0,
2008-09-01, 01:18:00,VALID,916.568,VALID,0,VALID,100,VALID,-0.0339617,VALID,19.0891,VALID,133,VALID,0,
2008-09-01, 01:19:00,VALID,916.551,VALID,0,VALID,100,VALID,-0.0169808,VALID,19.0991,VALID,135,VALID,0,
2008-09-01, 01:20:00,VALID,916.51,VALID,0,VALID,100,VALID,0,VALID,19.1019,VALID,145,VALID,0.155488,
2008-09-01, 01:21:00,VALID,916.485,VALID,0,VALID,100,VALID,0,VALID,19.0994,VALID,135,VALID,0.266715,
2008-09-01, 01:22:00,VALID,916.434,VALID,0,VALID,100,VALID,0,VALID,19.0697,VALID,145,VALID,0.88899,
2008-09-01, 01:23:00,VALID,916.414,VALID,0,VALID,100,VALID,-0.0169808,VALID,19.0569,VALID,141,VALID,0.750908,
2008-09-01, 01:24:00,VALID,916.392,VALID,0,VALID,100,VALID,-0.0169808,VALID,19.0537,VALID,146,VALID,0.361049,
2008-09-01, 01:25:00,VALID,916.38,VALID,0,VALID,100,VALID,0,VALID,19.0377,VALID,140,VALID,0.738814,
2008-09-01, 01:26:00,VALID,916.375,VALID,0,VALID,100,VALID,0,VALID,19.0277,VALID,153,VALID,1.24461,
2008-09-01, 01:27:00,VALID,916.36,VALID,0,VALID,100,VALID,-0.0339617,VALID,19.0277,VALID,151,VALID,1.11028,
2008-09-01, 01:28:00,VALID,916.345,VALID,0,VALID,100,VALID,-0.0509425,VALID,19.0215,VALID,148,VALID,0.879084,
2008-09-01, 01:29:00,VALID,916.328,VALID,0,VALID,100,VALID,-0.0169808,VALID,19.0113,VALID,144,VALID,0.441406,
2008-09-01, 01:30:00,VALID,916.308,VALID,0,VALID,100,VALID,-0.0339617,VALID,19.025,VALID,131,VALID,0,
2008-09-01, 01:31:00,VALID,916.297,VALID,0,VALID,100,VALID,-0.0169808,VALID,19.0113,VALID,131,VALID,0.505632,
2008-09-01, 01:32:00,VALID,916.29,VALID,0,VALID,100,VALID,0,VALID,18.9953,VALID,123,VALID,0,
2008-09-01, 01:33:00,VALID,916.279,VALID,0,VALID,100,VALID,0,VALID,18.9886,VALID,123,VALID,0,
2008-09-01, 01:34:00,VALID,916.254,VALID,0,VALID,100,VALID,0,VALID,18.9629,VALID,119,VALID,0,
2008-09-01, 01:35:00,VALID,916.235,VALID,0,VALID,100,VALID,-0.0339617,VALID,18.9534,VALID,118,VALID,0,
2008-09-01, 01:36:00,VALID,916.213,VALID,0,VALID,100,VALID,-0.0679233,VALID,18.9566,VALID,118,VALID,0,
2008-09-01, 01:37:00,VALID,916.198,VALID,0,VALID,100,VALID,-0.0169808,VALID,18.9564,VALID,118,VALID,0,
2008-09-01, 01:38:00,VALID,916.181,VALID,0,VALID,100,VALID,-0.0679233,VALID,18.9796,VALID,118,VALID,0,
2008-09-01, 01:39:00,VALID,916.179,VALID,0,VALID,100,VALID,-0.0339617,VALID,18.9726,VALID,207,VALID,0,
2008-09-01, 01:40:00,VALID,916.176,VALID,0,VALID,100,VALID,-0.0679233,VALID,18.9564,VALID,268,VALID,0,
2008-09-01, 01:41:00,VALID,916.186,VALID,0,VALID,100,VALID,-0.0169808,VALID,18.9596,VALID,268,VALID,0,
2008-09-01, 01:42:00,VALID,916.181,VALID,0,VALID,100,VALID,-0.0339617,VALID,18.9694,VALID,268,VALID,0,
2008-09-01, 01:43:00,VALID,916.187,VALID,0,VALID,100,VALID,-0.0339617,VALID,18.9726,VALID,268,VALID,0,
2008-09-01, 01:44:00,VALID,916.168,VALID,0,VALID,100,VALID,0,VALID,18.9626,VALID,268,VALID,0,
2008-09-01, 01:45:00,VALID,916.148,VALID,0,VALID,100,VALID,-0.0169808,VALID,18.9464,VALID,268,VALID,0,
2008-09-01, 01:46:00,VALID,916.108,VALID,0,VALID,100,VALID,-0.0169808,VALID,18.9466,VALID,268,VALID,0,
2008-09-01, 01:47:00,VALID,916.086,VALID,0,VALID,100,VALID,0,VALID,18.9339,VALID,238,VALID,0,
2008-09-01, 01:48:00,VALID,916.083,VALID,0,VALID,100,VALID,-0.0509425,VALID,18.8947,VALID,205,VALID,0,
2008-09-01, 01:49:00,VALID,916.08,VALID,0,VALID,100,VALID,-0.0169808,VALID,18.872,VALID,180,VALID,0,
2008-09-01, 01:50:00,VALID,916.086,VALID,0,VALID,100,VALID,-0.0169808,VALID,18.8621,VALID,158,VALID,0,
2008-09-01, 01:51:00,VALID,916.103,VALID,0,VALID,100,VALID,0,VALID,18.8623,VALID,144,VALID,0.100991,
2008-09-01, 01:52:00,VALID,916.108,VALID,0,VALID,100,VALID,-0.0339617,VALID,18.8588,VALID,130,VALID,0.193638,
2008-09-01, 01:53:00,VALID,916.119,VALID,0,VALID,100,VALID,0,VALID,18.8266,VALID,135,VALID,0.261285,
2008-09-01, 01:54:00,VALID,916.112,VALID,0,VALID,100,VALID,-0.0679233,VALID,18.8102,VALID,115,VALID,0,
2008-09-01, 01:55:00,VALID,916.107,VALID,0,VALID,100,VALID,-0.0509425,VALID,18.7815,VALID,106,VALID,0.0012718,
2008-09-01, 01:56:00,VALID,916.096,VALID,0,VALID,100,VALID,0,VALID,18.765,VALID,86,VALID,0,
2008-09-01, 01:57:00,VALID,916.1,VALID,0,VALID,100,VALID,-0.0169808,VALID,18.7425,VALID,74,VALID,0,
2008-09-01, 01:58:00,VALID,916.109,VALID,0,VALID,100,VALID,0,VALID,18.7388,VALID,67,VALID,0,
2008-09-01, 01:59:00,VALID,916.108,VALID,0,VALID,100,VALID,-0.0509425,VALID,18.7258,VALID,67,VALID,0,
2008-09-01, 02:00:00,VALID,916.11,VALID,0,VALID,100,VALID,-0.0679233,VALID,18.7423,VALID,71,VALID,0,
2008-09-01, 02:01:00,VALID,916.097,VALID,0,VALID,100,VALID,-0.0339617,VALID,18.7358,VALID,69,VALID,0,
2008-09-01, 02:02:00,VALID,916.092,VALID,0,VALID,100,VALID,-0.0339617,VALID,18.7326,VALID,65,VALID,0,
2008-09-01, 02:03:00,VALID,916.091,VALID,0,VALID,100,VALID,-0.0339617,VALID,18.7555,VALID,69,VALID,0,
2008-09-01, 02:04:00,VALID,916.089,VALID,0,VALID,100,VALID,-0.0849042,VALID,18.752,VALID,68,VALID,0.034157,
2008-09-01, 02:05:00,VALID,916.081,VALID,0,VALID,100,VALID,-0.0849042,VALID,18.775,VALID,85,VALID,0,
2008-09-01, 02:06:00,VALID,916.077,VALID,0,VALID,100,VALID,-0.0339617,VALID,18.7912,VALID,92,VALID,0,
2008-09-01, 02:07:00,VALID,916.045,VALID,0,VALID,100,VALID,-0.0509425,VALID,18.8039,VALID,88,VALID,0.0866642,
2008-09-01, 02:08:00,VALID,916.035,VALID,0,VALID,100,VALID,-0.0509425,VALID,18.8331,VALID,93,VALID,0.0441497,
2008-09-01, 02:09:00,VALID,916.02,VALID,0,VALID,100,VALID,-0.0339617,VALID,18.8428,VALID,104,VALID,0.461119,
2008-09-01, 02:10:00,VALID,916.013,VALID,0,VALID,100,VALID,-0.0509425,VALID,18.8558,VALID,138,VALID,0.888086,
2008-09-01, 02:11:00,VALID,916.004,VALID,0,VALID,100,VALID,-0.0509425,VALID,18.8526,VALID,133,VALID,0.975446,
2008-09-01, 02:12:00,VALID,915.989,VALID,0,VALID,100,VALID,-0.0339617,VALID,18.8788,VALID,135,VALID,1.27166,
2008-09-01, 02:13:00,VALID,915.966,VALID,0,VALID,100,VALID,0,VALID,18.8883,VALID,132,VALID,1.0408,
2008-09-01, 02:14:00,VALID,915.945,VALID,0,VALID,100,VALID,-0.0849042,VALID,18.911,VALID,126,VALID,0.931868,
2008-09-01, 02:15:00,VALID,915.936,VALID,0,VALID,100,VALID,-0.0169808,VALID,18.9369,VALID,118,VALID,1.0101,
2008-09-01, 02:16:00,VALID,915.929,VALID,0,VALID,100,VALID,-0.0849042,VALID,18.9698,VALID,128,VALID,1.1609,
2008-09-01, 02:17:00,VALID,915.934,VALID,0,VALID,100,VALID,-0.0679233,VALID,18.9921,VALID,136,VALID,1.10268,
2008-09-01, 02:18:00,VALID,915.941,VALID,0,VALID,100,VALID,-0.0679233,VALID,19.0277,VALID,134,VALID,1.24922,
2008-09-01, 02:19:00,VALID,915.979,VALID,0,VALID,100,VALID,-0.0509425,VALID,19.041,VALID,134,VALID,0.548651,
2008-09-01, 02:20:00,VALID,916,VALID,0,VALID,100,VALID,-0.101885,VALID,19.0537,VALID,131,VALID,1.23685,
2008-09-01, 02:21:00,VALID,916.018,VALID,0,VALID,100,VALID,-0.0169808,VALID,19.0435,VALID,120,VALID,1.34108,
2008-09-01, 02:22:00,VALID,916.024,VALID,0,VALID,100,VALID,0.0509425,VALID,19.0101,VALID,121,VALID,1.1516,
2008-09-01, 02:23:00,VALID,916.025,VALID,0,VALID,100,VALID,0.0169808,VALID,19.0004,VALID,123,VALID,1.17931,
2008-09-01, 02:24:00,VALID,916.039,VALID,0,VALID,100,VALID,0.0339617,VALID,18.9841,VALID,115,VALID,0.614139,
2008-09-01, 02:25:00,VALID,916.035,VALID,0,VALID,100,VALID,0.0169808,VALID,18.9584,VALID,109,VALID,0.262784,
2008-09-01, 02:26:00,VALID,916.039,VALID,0,VALID,100,VALID,0.101885,VALID,18.9257,VALID,117,VALID,0.538175,
2008-09-01, 02:27:00,VALID,916.032,VALID,0,VALID,100,VALID,0.0679233,VALID,18.903,VALID,112,VALID,0.740767,
2008-09-01, 02:28:00,VALID,916.039,VALID,0,VALID,100,VALID,0.0849042,VALID,18.8933,VALID,99,VALID,0.60883,
2008-09-01, 02:29:00,VALID,916.056,VALID,0,VALID,100,VALID,0.0509425,VALID,18.8576,VALID,96,VALID,0.354539,
2008-09-01, 02:30:00,VALID,916.057,VALID,0,VALID,100,VALID,0.0509425,VALID,18.8414,VALID,96,VALID,0,
2008-09-01, 02:31:00,VALID,916.044,VALID,0,VALID,100,VALID,0.0679233,VALID,18.8317,VALID,96,VALID,0,
2008-09-01, 02:32:00,VALID,916.028,VALID,0,VALID,100,VALID,0.0509425,VALID,18.8287,VALID,96,VALID,0,
2008-09-01, 02:33:00,VALID,916.029,VALID,0,VALID,100,VALID,0.0169808,VALID,18.8194,VALID,186,VALID,0.515816,
2008-09-01, 02:34:00,VALID,916.042,VALID,0,VALID,100,VALID,0.0339617,VALID,18.819,VALID,249,VALID,0.675604,
2008-09-01, 02:35:00,VALID,916.027,VALID,0,VALID,100,VALID,0.0849042,VALID,18.8252,VALID,250,VALID,0.704578,
2008-09-01, 02:36:00,VALID,916.013,VALID,0,VALID,100,VALID,0,VALID,18.8361,VALID,255,VALID,0.230903,
2008-09-01, 02:37:00,VALID,915.993,VALID,0,VALID,100,VALID,-0.0339617,VALID,18.8201,VALID,255,VALID,0.00833333,
2008-09-01, 02:38:00,VALID,915.98,VALID,0,VALID,100,VALID,-0.0679233,VALID,18.8134,VALID,255,VALID,0,
2008-09-01, 02:39:00,VALID,915.991,VALID,0,VALID,100,VALID,-0.0339617,VALID,18.8037,VALID,255,VALID,0,
2008-09-01, 02:40:00,VALID,915.985,VALID,0,VALID,100,VALID,0,VALID,18.8137,VALID,255,VALID,0,
2008-09-01, 02:41:00,VALID,916.012,VALID,0,VALID,100,VALID,0,VALID,18.7974,VALID,255,VALID,0,
2008-09-01, 02:42:00,VALID,916.036,VALID,0,VALID,100,VALID,-0.0169808,VALID,18.7877,VALID,255,VALID,0,
2008-09-01, 02:43:00,VALID,916.055,VALID,0,VALID,100,VALID,-0.0339617,VALID,18.7488,VALID,255,VALID,0,
2008-09-01, 02:44:00,VALID,916.061,VALID,0,VALID,100,VALID,-0.0679233,VALID,18.6969,VALID,307,VALID,0,
2008-09-01, 02:45:00,VALID,916.065,VALID,0,VALID,100,VALID,-0.0339617,VALID,18.6612,VALID,33,VALID,0,
2008-09-01, 02:46:00,VALID,916.051,VALID,0,VALID,100,VALID,-0.0849042,VALID,18.6125,VALID,33,VALID,0,
2008-09-01, 02:47:00,VALID,916.038,VALID,0,VALID,100,VALID,-0.0509425,VALID,18.6061,VALID,33,VALID,0,
2008-09-01, 02:48:00,VALID,916.011,VALID,0,VALID,100,VALID,-0.0849042,VALID,18.6028,VALID,33,VALID,0,
2008-09-01, 02:49:00,VALID,916.002,VALID,0,VALID,100,VALID,-0.0339617,VALID,18.6061,VALID,33,VALID,0,
2008-09-01, 02:50:00,VALID,915.974,VALID,0,VALID,100,VALID,-0.0849042,VALID,18.5736,VALID,33,VALID,0,
2008-09-01, 02:51:00,VALID,915.955,VALID,0,VALID,100,VALID,-0.0339617,VALID,18.5607,VALID,33,VALID,0,
2008-09-01, 02:52:00,VALID,915.94,VALID,0,VALID,100,VALID,-0.0679233,VALID,18.5349,VALID,33,VALID,0,
2008-09-01, 02:53:00,VALID,915.913,VALID,0,VALID,100,VALID,-0.0849042,VALID,18.5057,VALID,38,VALID,0,
2008-09-01, 02:54:00,VALID,915.893,VALID,0,VALID,100,VALID,-0.0849042,VALID,18.4993,VALID,173,VALID,0,
2008-09-01, 02:55:00,VALID,915.859,VALID,0,VALID,100,VALID,-0.0849042,VALID,18.5347,VALID,153,VALID,0,
2008-09-01, 02:56:00,VALID,915.828,VALID,0,VALID,100,VALID,-0.0849042,VALID,18.6063,VALID,142,VALID,0,
2008-09-01, 02:57:00,VALID,915.802,VALID,0,VALID,100,VALID,-0.0849042,VALID,18.6417,VALID,140,VALID,0,
2008-09-01, 02:58:00,VALID,915.793,VALID,0,VALID,100,VALID,-0.101885,VALID,18.6385,VALID,140,VALID,0,
2008-09-01, 02:59:00,VALID,915.785,VALID,0,VALID,100,VALID,-0.101885,VALID,18.6225,VALID,136,VALID,0,
2008-09-01, 03:00:00,VALID,915.78,VALID,0,VALID,100,VALID,-0.0339617,VALID,18.6061,VALID,120,VALID,0,
2008-09-01, 03:01:00,VALID,915.778,VALID,0,VALID,100,VALID,-0.0509425,VALID,18.6413,VALID,112,VALID,0,
2008-09-01, 03:02:00,VALID,915.778,VALID,0,VALID,100,VALID,-0.0679233,VALID,18.7101,VALID,116,VALID,0,
2008-09-01, 03:03:00,VALID,915.769,VALID,0,VALID,100,VALID,-0.101885,VALID,18.7655,VALID,127,VALID,0,
2008-09-01, 03:04:00,VALID,915.764,VALID,0,VALID,100,VALID,-0.101885,VALID,18.7782,VALID,128,VALID,0,
2008-09-01, 03:05:00,VALID,915.736,VALID,0,VALID,100,VALID,-0.0679233,VALID,18.8007,VALID,113,VALID,0,
2008-09-01, 03:06:00,VALID,915.716,VALID,0,VALID,100,VALID,-0.0849042,VALID,18.8137,VALID,94,VALID,0,
2008-09-01, 03:07:00,VALID,915.718,VALID,0,VALID,100,VALID,-0.0509425,VALID,18.8169,VALID,90,VALID,0,
2008-09-01, 03:08:00,VALID,915.69,VALID,0,VALID,100,VALID,-0.0509425,VALID,18.7745,VALID,90,VALID,0,
2008-09-01, 03:09:00,VALID,915.679,VALID,0,VALID,100,VALID,-0.0509425,VALID,18.7488,VALID,90,VALID,0,
2008-09-01, 03:10:00,VALID,915.667,VALID,0,VALID,100,VALID,-0.0679233,VALID,18.7518,VALID,103,VALID,0,
2008-09-01, 03:11:00,VALID,915.646,VALID,0,VALID,100,VALID,-0.0339617,VALID,18.7326,VALID,112,VALID,0,
2008-09-01, 03:12:00,VALID,915.625,VALID,0,VALID,100,VALID,-0.0849042,VALID,18.7231,VALID,113,VALID,0,
2008-09-01, 03:13:00,VALID,915.606,VALID,0,VALID,100,VALID,-0.0849042,VALID,18.7328,VALID,119,VALID,0,
2008-09-01, 03:14:00,VALID,915.602,VALID,0,VALID,100,VALID,-0.101885,VALID,18.7395,VALID,120,VALID,0,
2008-09-01, 03:15:00,VALID,915.599,VALID,0,VALID,100,VALID,-0.0339617,VALID,18.7261,VALID,121,VALID,0,
2008-09-01, 03:16:00,VALID,915.608,VALID,0,VALID,100,VALID,-0.101885,VALID,18.7326,VALID,138,VALID,0,
2008-09-01, 03:17:00,VALID,915.608,VALID,0,VALID,100,VALID,-0.0849042,VALID,18.7133,VALID,155,VALID,0,
2008-09-01, 03:18:00,VALID,915.593,VALID,0,VALID,100,VALID,-0.0679233,VALID,18.6874,VALID,154,VALID,0.38529,
2008-09-01, 03:19:00,VALID,915.582,VALID,0,VALID,100,VALID,0,VALID,18.6737,VALID,151,VALID,1.1855,
2008-09-01, 03:20:00,VALID,915.58,VALID,0,VALID,100,VALID,-0.0339617,VALID,18.6707,VALID,156,VALID,0.9913,
2008-09-01, 03:21:00,VALID,915.573,VALID,0,VALID,100,VALID,-0.0339617,VALID,18.6644,VALID,150,VALID,0.972486,
2008-09-01, 03:22:00,VALID,915.566,VALID,0,VALID,100,VALID,-0.0169808,VALID,18.6677,VALID,160,VALID,0.834484,
2008-09-01, 03:23:00,VALID,915.558,VALID,0,VALID,100,VALID,-0.0509425,VALID,18.6612,VALID,149,VALID,0.87936,
2008-09-01, 03:24:00,VALID,915.556,VALID,0,VALID,100,VALID,-0.0509425,VALID,18.6515,VALID,145,VALID,0.23819,
2008-09-01, 03:25:00,VALID,915.539,VALID,0,VALID,100,VALID,-0.0339617,VALID,18.6447,VALID,150,VALID,0.706597,
2008-09-01, 03:26:00,VALID,915.518,VALID,0,VALID,100,VALID,-0.0169808,VALID,18.6413,VALID,143,VALID,0.941883,
2008-09-01, 03:27:00,VALID,915.488,VALID,0,VALID,100,VALID,-0.0339617,VALID,18.6413,VALID,142,VALID,0.610863,
2008-09-01, 03:28:00,VALID,915.465,VALID,0,VALID,100,VALID,-0.0679233,VALID,18.6482,VALID,133,VALID,0.910334,
2008-09-01, 03:29:00,VALID,915.445,VALID,0,VALID,100,VALID,-0.0169808,VALID,18.6417,VALID,135,VALID,0.259055,
2008-09-01, 03:30:00,VALID,915.417,VALID,0,VALID,100,VALID,-0.0509425,VALID,18.6512,VALID,142,VALID,0.859557,
2008-09-01, 03:31:00,VALID,915.415,VALID,0,VALID,100,VALID,-0.0509425,VALID,18.6679,VALID,137,VALID,0.840234,
2008-09-01, 03:32:00,VALID,915.402,VALID,0,VALID,100,VALID,-0.0339617,VALID,18.6607,VALID,135,VALID,1.27915,
2008-09-01, 03:33:00,VALID,915.392,VALID,0,VALID,100,VALID,-0.0169808,VALID,18.6677,VALID,138,VALID,1.09794,
2008-09-01, 03:34:00,VALID,915.37,VALID,0,VALID,100,VALID,-0.101885,VALID,18.6677,VALID,137,VALID,0.72017,
2008-09-01, 03:35:00,VALID,915.366,VALID,0,VALID,100,VALID,-0.101885,VALID,18.6517,VALID,147,VALID,0.706659,
2008-09-01, 03:36:00,VALID,915.344,VALID,0,VALID,100,VALID,-0.0339617,VALID,18.6288,VALID,135,VALID,0.929688,
2008-09-01, 03:37:00,VALID,915.313,VALID,0,VALID,100,VALID,-0.0679233,VALID,18.619,VALID,155,VALID,0.61319,
2008-09-01, 03:38:00,VALID,915.293,VALID,0,VALID,100,VALID,-0.0679233,VALID,18.632,VALID,136,VALID,0.721112,
2008-09-01, 03:39:00,VALID,915.27,VALID,0,VALID,100,VALID,-0.0849042,VALID,18.619,VALID,137,VALID,0.904762,
2008-09-01, 03:40:00,VALID,915.245,VALID,0,VALID,100,VALID,-0.0849042,VALID,18.6093,VALID,141,VALID,0.874814,
2008-09-01, 03:41:00,VALID,915.239,VALID,0,VALID,100,VALID,-0.0849042,VALID,18.6063,VALID,138,VALID,0.798018,
2008-09-01, 03:42:00,VALID,915.235,VALID,0,VALID,100,VALID,-0.0679233,VALID,18.5898,VALID,134,VALID,0.911086,
2008-09-01, 03:43:00,VALID,915.232,VALID,0,VALID,100,VALID,-0.101885,VALID,18.5936,VALID,126,VALID,0.875781,
2008-09-01, 03:44:00,VALID,915.227,VALID,0,VALID,100,VALID,-0.0679233,VALID,18.5901,VALID,127,VALID,1.47545,
2008-09-01, 03:45:00,VALID,915.243,VALID,0,VALID,100,VALID,-0.101885,VALID,18.5936,VALID,122,VALID,1.08487,
2008-09-01, 03:46:00,VALID,915.234,VALID,0,VALID,100,VALID,-0.0849042,VALID,18.5834,VALID,121,VALID,0.77096,
2008-09-01, 03:47:00,VALID,915.247,VALID,0,VALID,100,VALID,-0.0339617,VALID,18.5963,VALID,118,VALID,0.904978,